THORAD DELTA 1 DEB, 8143

Orbit data source: Space-Track

THORAD DELTA 1 DEB, 8143 is space debris in SSO originally from a launch on Fri, 15 Nov 1974 UTC launched from the Air Force Western Test Range (AFWTR). Debris objects in space refer to the collection of defunct objects orbiting the Earth. Examples of debris include non-operational satellites, rocket bodies, and fragments generated from explosions, collisions, or faulty payload assembly.

Loading next visibility...
Identifier
8143, 1974-089M
Orbit
SSO
Country
Flag of USUS
Related business
Manufacturer
Unknown
Mission
Spacecraft
Bus & Motor
Unknown
Mass
Unknown
Launch date (UTC)
1974-11-15 (51 years ago)
Launch vehicle
Unknown
Launch site
Air Force Western Test Range (AFWTR)
Object type
Payload
Rocket body
Debris
Shape & HBR
Unknown shape, 0.4 m
Radar Cross Section
Small (<0.1 m²)

Expand to show TLE details & history
Last TLE update: 23 hours ago

TLE from 23 hours ago
0 THORAD DELTA 1 DEB
1 08143U 74089M   26106.53463399  .00000028  00000-0  39444-3 0  9998
2 08143 101.7695  95.3995 0193082 326.2499  32.6408 12.61374550364959
Epoch: 2026-04-16T12:49Z
TLE epoch observation values (Epoch: 2026-04-16T12:49:52.376Z)
Latitude
-0.00011°
Longitude
58.2505°
Altitude
1,293.967 km
Speed
7.267 km/s
True Right ascension
06h 21m 35s
True Declination
0° 00' 00"
Sunlit
Object was in daylight at epoch
Visualization orbit readout
Latitude
Unknown
Longitude
Unknown
Altitude
Unknown
Speed
Unknown
Apparent Right ascension
Unknown
Apparent Declination
Unknown
Sunlit
N/A
Visualization observer readout
Local Sidereal Time
18:13:28
Azimuth
Unknown
Elevation
Unknown
Doppler factor
Unknown
Orbital elements
Apogee altitude
1,565.276 km
Perigee altitude
1,264.34 km
Semi-major axis
7,792.945 km
Eccentricity
0.01931
Inclination
101.7695°
RAAN
95.3995°
Arg. of periapsis
326.2499°
True anomaly
33.85883°
Mean anomaly
32.6408°
Eccentric anomaly
33.24732°
Mean motion
3.15494 °/min
Orbital period
114.11 mins
BSTAR
0.00039444
Loading maneuver chart data...
Computing Atmospheric mass density...

Documentation

Showing up to 5 results
|